Time,TemperatureF,DewpointF,PressureIn,WindDirection,WindDirectionDegrees,WindSpeedMPH,WindSpeedGustMPH,Humidity,HourlyPrecipIn,Conditions,Clouds,dailyrainin,SoftwareType,DateUTC
2013-02-03 00:03:00,30.0,28.0,30.26,WNW,295,1.0,3.0,93,0.00,,,0.00,,2013-02-03 05:03:00,
2013-02-03 00:12:00,30.0,28.0,30.26,WNW,295,1.0,3.0,93,0.00,,,0.00,,2013-02-03 05:12:00,
2013-02-03 00:22:00,30.0,28.0,30.26,South,190,3.0,7.0,93,0.00,,,0.00,,2013-02-03 05:22:00,
2013-02-03 00:32:00,30.0,28.0,30.26,NNW,344,3.0,12.0,91,0.00,,,0.00,,2013-02-03 05:32:00,
2013-02-03 00:42:00,30.0,28.0,30.26,NNW,344,3.0,12.0,91,0.00,,,0.00,,2013-02-03 05:42:00,
2013-02-03 00:52:00,31.0,29.0,30.25,SSW,194,2.0,5.0,91,0.00,,,0.00,,2013-02-03 05:52:00,
2013-02-03 01:02:00,30.0,28.0,30.26,West,261,1.0,6.0,91,0.00,,,0.00,,2013-02-03 06:02:00,
2013-02-03 01:11:00,30.0,28.0,30.26,West,261,1.0,6.0,91,0.00,,,0.00,,2013-02-03 06:11:00,
2013-02-03 01:21:00,30.0,27.0,30.25,SSW,211,2.0,10.0,89,0.00,,,0.00,,2013-02-03 06:21:00,
2013-02-03 01:32:00,30.0,27.0,30.25,WSW,256,6.0,17.0,89,0.00,,,0.00,,2013-02-03 06:32:00,
2013-02-03 01:42:00,30.0,27.0,30.25,WSW,256,6.0,17.0,89,0.00,,,0.00,,2013-02-03 06:42:00,
2013-02-03 01:52:00,30.0,27.0,30.24,West,266,6.0,11.0,90,0.00,,,0.00,,2013-02-03 06:52:00,
2013-02-03 02:02:00,29.0,26.0,30.24,ESE,112,2.0,19.0,89,0.00,,,0.00,,2013-02-03 07:02:00,
2013-02-03 02:11:00,29.0,26.0,30.24,ESE,112,2.0,19.0,89,0.00,,,0.00,,2013-02-03 07:11:00,
2013-02-03 02:21:00,29.0,26.0,30.24,SW,236,3.0,16.0,87,0.00,,,0.00,,2013-02-03 07:21:00,
2013-02-03 02:32:00,29.0,25.0,30.24,West,269,3.0,11.0,84,0.00,,,0.00,,2013-02-03 07:32:00,
2013-02-03 02:42:00,29.0,25.0,30.24,West,269,3.0,11.0,84,0.00,,,0.00,,2013-02-03 07:42:00,
2013-02-03 02:52:00,29.0,25.0,30.23,SSW,210,4.0,10.0,86,0.00,,,0.00,,2013-02-03 07:52:00,
2013-02-03 03:01:00,28.0,24.0,30.23,North,1,1.0,9.0,84,0.00,,,0.00,,2013-02-03 08:01:00,
2013-02-03 03:11:00,28.0,24.0,30.23,North,1,1.0,9.0,84,0.00,,,0.00,,2013-02-03 08:11:00,
2013-02-03 03:22:00,28.0,24.0,30.23,NW,304,5.0,11.0,83,0.00,,,0.00,,2013-02-03 08:22:00,
2013-02-03 03:32:00,28.0,24.0,30.22,WSW,249,2.0,10.0,84,0.00,,,0.00,,2013-02-03 08:32:00,
2013-02-03 03:41:00,28.0,24.0,30.22,WSW,249,2.0,10.0,84,0.00,,,0.00,,2013-02-03 08:41:00,
2013-02-03 03:52:00,28.0,24.0,30.22,North,349,1.0,11.0,84,0.00,,,0.00,,2013-02-03 08:52:00,
2013-02-03 04:03:00,28.0,24.0,30.21,NE,43,2.0,9.0,84,0.00,,,0.00,,2013-02-03 09:03:00,
2013-02-03 04:11:00,28.0,24.0,30.21,NE,43,2.0,9.0,84,0.00,,,0.00,,2013-02-03 09:11:00,
2013-02-03 04:22:00,28.0,24.0,30.21,ENE,62,3.0,11.0,85,0.00,,,0.00,,2013-02-03 09:22:00,
2013-02-03 04:32:00,28.0,24.0,30.22,NW,309,1.0,13.0,85,0.00,,,0.00,,2013-02-03 09:32:00,
2013-02-03 04:42:00,28.0,24.0,30.22,NW,309,1.0,13.0,85,0.00,,,0.00,,2013-02-03 09:42:00,
2013-02-03 04:52:00,28.0,24.0,30.21,North,360,1.0,15.0,85,0.00,,,0.00,,2013-02-03 09:52:00,
2013-02-03 05:01:00,28.0,24.0,30.21,WNW,284,5.0,16.0,85,0.00,,,0.00,,2013-02-03 10:01:00,
2013-02-03 05:11:00,28.0,24.0,30.21,WNW,284,5.0,16.0,85,0.00,,,0.00,,2013-02-03 10:11:00,
2013-02-03 05:21:00,28.0,24.0,30.20,SSE,148,2.0,10.0,85,0.00,,,0.00,,2013-02-03 10:21:00,
2013-02-03 05:32:00,28.0,24.0,30.20,West,280,3.0,9.0,85,0.00,,,0.00,,2013-02-03 10:32:00,
2013-02-03 05:42:00,28.0,24.0,30.20,West,280,3.0,9.0,85,0.00,,,0.00,,2013-02-03 10:42:00,
2013-02-03 05:53:00,28.0,24.0,30.19,SSE,155,2.0,10.0,83,0.00,,,0.00,,2013-02-03 10:53:00,
2013-02-03 06:02:00,28.0,24.0,30.19,SW,214,2.0,8.0,85,0.00,,,0.00,,2013-02-03 11:02:00,
2013-02-03 06:11:00,28.0,24.0,30.19,SW,214,2.0,8.0,85,0.00,,,0.00,,2013-02-03 11:11:00,
2013-02-03 06:22:00,28.0,24.0,30.19,West,259,2.0,12.0,85,0.00,,,0.00,,2013-02-03 11:22:00,
2013-02-03 06:32:00,29.0,25.0,30.19,NW,313,6.0,16.0,84,0.00,,,0.00,,2013-02-03 11:32:00,
2013-02-03 06:42:00,29.0,25.0,30.19,NW,313,6.0,16.0,84,0.00,,,0.00,,2013-02-03 11:42:00,
2013-02-03 06:52:00,29.0,25.0,30.19,SSW,205,1.0,7.0,85,0.00,,,0.00,,2013-02-03 11:52:00,
2013-02-03 07:02:00,29.0,25.0,30.18,North,356,3.0,16.0,83,0.00,,,0.00,,2013-02-03 12:02:00,
2013-02-03 07:12:00,29.0,25.0,30.18,North,356,3.0,16.0,83,0.00,,,0.00,,2013-02-03 12:12:00,
2013-02-03 07:22:00,29.0,25.0,30.17,SE,137,4.0,10.0,83,0.00,,,0.00,,2013-02-03 12:22:00,
2013-02-03 07:32:00,29.0,25.0,30.16,ESE,121,1.0,5.0,84,0.00,,,0.00,,2013-02-03 12:32:00,
2013-02-03 07:42:00,29.0,25.0,30.16,ESE,121,1.0,5.0,84,0.00,,,0.00,,2013-02-03 12:42:00,
2013-02-03 07:53:00,28.0,24.0,30.16,WSW,243,0.0,5.0,85,0.00,,,0.00,,2013-02-03 12:53:00,
2013-02-03 08:03:00,28.0,24.0,30.16,ESE,102,0.0,3.0,86,0.00,,,0.00,,2013-02-03 13:03:00,
2013-02-03 08:11:00,28.0,24.0,30.16,ESE,102,0.0,3.0,86,0.00,,,0.00,,2013-02-03 13:11:00,
2013-02-03 08:22:00,28.0,25.0,30.17,SSE,153,0.0,3.0,90,0.00,,,0.00,,2013-02-03 13:22:00,
2013-02-03 08:32:00,28.0,26.0,30.17,South,181,0.0,3.0,92,0.00,,,0.00,,2013-02-03 13:32:00,
2013-02-03 08:42:00,28.0,26.0,30.17,South,181,0.0,3.0,92,0.00,,,0.00,,2013-02-03 13:42:00,
2013-02-03 08:52:00,28.0,26.0,30.17,SSE,149,1.0,6.0,93,0.00,,,0.00,,2013-02-03 13:52:00,
2013-02-03 09:02:00,28.0,26.0,30.17,SW,236,2.0,10.0,93,0.00,,,0.00,,2013-02-03 14:02:00,
2013-02-03 09:12:00,28.0,26.0,30.17,SW,236,2.0,10.0,93,0.00,,,0.00,,2013-02-03 14:12:00,
2013-02-03 09:22:00,28.0,27.0,30.17,SE,141,0.0,5.0,94,0.00,,,0.00,,2013-02-03 14:22:00,
2013-02-03 09:32:00,28.0,27.0,30.17,ESE,117,0.0,4.0,94,0.00,,,0.00,,2013-02-03 14:32:00,
2013-02-03 09:42:00,28.0,27.0,30.17,ESE,117,0.0,4.0,94,0.00,,,0.00,,2013-02-03 14:42:00,
2013-02-03 09:52:00,28.0,27.0,30.17,NE,43,0.0,3.0,94,0.00,,,0.00,,2013-02-03 14:52:00,
2013-02-03 10:03:00,29.0,27.0,30.16,ESE,115,0.0,3.0,94,0.00,,,0.00,,2013-02-03 15:03:00,
2013-02-03 10:11:00,29.0,27.0,30.16,ESE,115,0.0,3.0,94,0.00,,,0.00,,2013-02-03 15:11:00,
2013-02-03 10:22:00,29.0,28.0,30.16,ENE,70,0.0,2.0,95,0.00,,,0.00,,2013-02-03 15:22:00,
2013-02-03 10:33:00,29.0,28.0,30.15,East,96,0.0,3.0,95,0.00,,,0.00,,2013-02-03 15:33:00,
2013-02-03 10:42:00,29.0,28.0,30.15,East,96,0.0,3.0,95,0.00,,,0.00,,2013-02-03 15:42:00,
2013-02-03 10:52:00,29.0,28.0,30.15,East,96,0.0,3.0,95,0.00,,,0.00,,2013-02-03 15:52:00,
2013-02-03 11:03:00,30.0,29.0,30.15,East,82,0.0,6.0,95,0.00,,,0.00,,2013-02-03 16:03:00,
2013-02-03 11:11:00,30.0,29.0,30.15,East,82,0.0,6.0,95,0.00,,,0.00,,2013-02-03 16:11:00,
2013-02-03 11:22:00,31.0,30.0,30.15,East,88,1.0,4.0,95,0.00,,,0.00,,2013-02-03 16:22:00,
2013-02-03 11:33:00,32.0,31.0,30.15,ENE,75,0.0,4.0,95,0.00,,,0.00,,2013-02-03 16:33:00,
2013-02-03 11:42:00,32.0,31.0,30.15,ENE,75,0.0,4.0,95,0.00,,,0.00,,2013-02-03 16:42:00,
2013-02-03 11:52:00,32.0,31.0,30.15,ENE,75,0.0,4.0,95,0.00,,,0.00,,2013-02-03 16:52:00,
2013-02-03 12:02:00,32.0,31.0,30.15,ENE,75,0.0,4.0,95,0.00,,,0.00,,2013-02-03 17:02:00,
2013-02-03 12:11:00,32.0,31.0,30.15,ENE,75,0.0,4.0,95,0.00,,,0.00,,2013-02-03 17:11:00,
2013-02-03 12:52:00,33.0,28.0,30.14,SSE,166,1.0,19.0,81,0.00,,,0.00,,2013-02-03 17:52:00,
2013-02-03 13:03:00,33.0,27.0,30.14,WSW,248,13.0,27.0,77,0.00,,,0.00,,2013-02-03 18:03:00,
2013-02-03 13:12:00,33.0,27.0,30.14,WSW,248,13.0,27.0,77,0.00,,,0.00,,2013-02-03 18:12:00,
2013-02-03 13:23:00,33.0,28.0,30.13,ESE,117,3.0,12.0,82,0.00,,,0.00,,2013-02-03 18:23:00,
2013-02-03 13:33:00,34.0,28.0,30.14,West,260,4.0,23.0,78,0.00,,,0.00,,2013-02-03 18:33:00,
2013-02-03 13:42:00,34.0,28.0,30.14,West,260,4.0,23.0,78,0.00,,,0.00,,2013-02-03 18:42:00,
2013-02-03 13:52:00,34.0,28.0,30.14,South,175,6.0,16.0,78,0.00,,,0.00,,2013-02-03 18:52:00,
2013-02-03 14:02:00,34.0,28.0,30.14,SW,224,4.0,17.0,79,0.00,,,0.00,,2013-02-03 19:02:00,
2013-02-03 14:11:00,34.0,28.0,30.14,SW,224,4.0,17.0,79,0.00,,,0.00,,2013-02-03 19:11:00,
2013-02-03 14:22:00,35.0,28.0,30.13,NE,44,7.0,12.0,76,0.00,,,0.00,,2013-02-03 19:22:00,
2013-02-03 14:32:00,35.0,29.0,30.14,SSE,149,8.0,19.0,77,0.00,,,0.00,,2013-02-03 19:32:00,
2013-02-03 14:42:00,35.0,29.0,30.14,SSE,149,8.0,19.0,77,0.00,,,0.00,,2013-02-03 19:42:00,
2013-02-03 14:52:00,34.0,27.0,30.14,East,101,2.0,14.0,75,0.00,,,0.00,,2013-02-03 19:52:00,
2013-02-03 15:02:00,34.0,28.0,30.14,West,269,3.0,15.0,77,0.00,,,0.00,,2013-02-03 20:02:00,
2013-02-03 15:12:00,34.0,28.0,30.14,West,269,3.0,15.0,77,0.00,,,0.00,,2013-02-03 20:12:00,
2013-02-03 15:22:00,34.0,27.0,30.14,SSW,210,8.0,14.0,75,0.00,,,0.00,,2013-02-03 20:22:00,
2013-02-03 15:33:00,34.0,26.0,30.15,NE,43,3.0,12.0,72,0.00,,,0.00,,2013-02-03 20:33:00,
2013-02-03 15:42:00,34.0,26.0,30.15,NE,43,3.0,12.0,72,0.00,,,0.00,,2013-02-03 20:42:00,
2013-02-03 15:52:00,34.0,27.0,30.14,SE,139,3.0,9.0,76,0.00,,,0.00,,2013-02-03 20:52:00,
2013-02-03 16:03:00,34.0,27.0,30.15,North,1,5.0,15.0,75,0.00,,,0.00,,2013-02-03 21:03:00,
2013-02-03 16:11:00,34.0,27.0,30.15,North,1,5.0,15.0,75,0.00,,,0.00,,2013-02-03 21:11:00,
2013-02-03 16:21:00,34.0,27.0,30.16,WSW,257,8.0,15.0,74,0.00,,,0.00,,2013-02-03 21:21:00,
2013-02-03 16:32:00,34.0,27.0,30.16,SW,230,1.0,10.0,76,0.00,,,0.00,,2013-02-03 21:32:00,
2013-02-03 16:42:00,34.0,27.0,30.16,SW,230,1.0,10.0,76,0.00,,,0.00,,2013-02-03 21:42:00,
2013-02-03 16:52:00,34.0,28.0,30.17,WNW,298,2.0,6.0,78,0.00,,,0.00,,2013-02-03 21:52:00,
2013-02-03 17:02:00,34.0,28.0,30.17,NNW,336,1.0,5.0,77,0.00,,,0.00,,2013-02-03 22:02:00,
2013-02-03 17:11:00,34.0,28.0,30.17,NNW,336,1.0,5.0,77,0.00,,,0.00,,2013-02-03 22:11:00,
2013-02-03 17:21:00,34.0,27.0,30.17,SSW,193,4.0,25.0,74,0.00,,,0.00,,2013-02-03 22:21:00,
2013-02-03 17:32:00,34.0,27.0,30.17,South,182,2.0,14.0,74,0.01,,,0.01,,2013-02-03 22:32:00,
2013-02-03 17:42:00,34.0,27.0,30.17,South,182,2.0,14.0,74,0.01,,,0.01,,2013-02-03 22:42:00,
2013-02-03 17:52:00,34.0,26.0,30.18,NW,310,3.0,12.0,73,0.01,,,0.01,,2013-02-03 22:52:00,
2013-02-03 18:01:00,34.0,27.0,30.18,West,267,3.0,19.0,75,0.01,,,0.01,,2013-02-03 23:01:00,
2013-02-03 18:12:00,34.0,27.0,30.18,West,267,3.0,19.0,75,0.01,,,0.01,,2013-02-03 23:12:00,
2013-02-03 18:22:00,33.0,26.0,30.18,SE,135,2.0,6.0,75,0.02,,,0.02,,2013-02-03 23:22:00,
2013-02-03 18:32:00,33.0,27.0,30.17,ESE,117,0.0,4.0,77,0.01,,,0.02,,2013-02-03 23:32:00,
2013-02-03 18:42:00,33.0,27.0,30.17,ESE,117,0.0,4.0,77,0.01,,,0.02,,2013-02-03 23:42:00,
2013-02-03 18:52:00,32.0,26.0,30.18,SSE,155,5.0,15.0,77,0.01,,,0.02,,2013-02-03 23:52:00,
2013-02-03 19:02:00,32.0,25.0,30.19,SSE,158,1.0,9.0,75,0.01,,,0.02,,2013-02-04 00:02:00,
2013-02-03 19:11:00,32.0,25.0,30.19,SSE,158,1.0,9.0,75,0.01,,,0.02,,2013-02-04 00:11:00,
2013-02-03 19:22:00,32.0,25.0,30.20,SW,218,4.0,11.0,75,0.00,,,0.02,,2013-02-04 00:22:00,
2013-02-03 19:32:00,32.0,25.0,30.20,SW,221,1.0,5.0,74,0.01,,,0.03,,2013-02-04 00:32:00,
2013-02-03 19:42:00,32.0,25.0,30.20,SW,221,1.0,5.0,74,0.01,,,0.03,,2013-02-04 00:42:00,
2013-02-03 19:52:00,32.0,24.0,30.21,NW,304,2.0,12.0,72,0.01,,,0.03,,2013-02-04 00:52:00,
2013-02-03 20:01:00,32.0,25.0,30.22,NW,314,4.0,13.0,74,0.01,,,0.03,,2013-02-04 01:01:00,
2013-02-03 20:11:00,32.0,25.0,30.22,NW,314,4.0,13.0,74,0.01,,,0.03,,2013-02-04 01:11:00,
2013-02-03 20:21:00,32.0,24.0,30.22,SSE,153,0.0,14.0,73,0.01,,,0.03,,2013-02-04 01:21:00,
2013-02-03 20:32:00,31.0,24.0,30.22,WNW,288,8.0,15.0,75,0.00,,,0.03,,2013-02-04 01:32:00,
2013-02-03 20:42:00,31.0,24.0,30.22,WNW,288,8.0,15.0,75,0.00,,,0.03,,2013-02-04 01:42:00,
2013-02-03 20:52:00,31.0,25.0,30.22,WNW,285,6.0,12.0,77,0.00,,,0.03,,2013-02-04 01:52:00,
2013-02-03 21:02:00,31.0,25.0,30.22,WNW,285,5.0,15.0,77,0.00,,,0.03,,2013-02-04 02:02:00,
2013-02-03 21:11:00,31.0,25.0,30.22,WNW,285,5.0,15.0,77,0.00,,,0.03,,2013-02-04 02:11:00,
2013-02-03 21:21:00,30.0,24.0,30.23,WNW,282,1.0,7.0,78,0.00,,,0.03,,2013-02-04 02:21:00,
2013-02-03 21:32:00,30.0,24.0,30.22,WSW,258,6.0,12.0,79,0.00,,,0.03,,2013-02-04 02:32:00,
2013-02-03 21:42:00,30.0,24.0,30.22,WSW,258,6.0,12.0,79,0.00,,,0.03,,2013-02-04 02:42:00,
2013-02-03 21:52:00,30.0,25.0,30.22,West,280,5.0,12.0,81,0.00,,,0.03,,2013-02-04 02:52:00,
2013-02-03 22:02:00,29.0,23.0,30.22,NW,312,2.0,14.0,79,0.00,,,0.03,,2013-02-04 03:02:00,
2013-02-03 22:11:00,29.0,23.0,30.22,NW,312,2.0,14.0,79,0.00,,,0.03,,2013-02-04 03:11:00,
2013-02-03 22:21:00,29.0,23.0,30.22,West,269,6.0,14.0,79,0.00,,,0.03,,2013-02-04 03:21:00,
2013-02-03 22:32:00,29.0,23.0,30.22,West,273,6.0,9.0,78,0.00,,,0.03,,2013-02-04 03:32:00,
2013-02-03 22:42:00,29.0,23.0,30.22,West,273,6.0,9.0,78,0.00,,,0.03,,2013-02-04 03:42:00,
2013-02-03 22:52:00,29.0,23.0,30.22,WSW,251,0.0,14.0,78,0.00,,,0.03,,2013-02-04 03:52:00,
2013-02-03 23:01:00,29.0,23.0,30.22,WSW,251,0.0,14.0,78,0.00,,,0.03,,2013-02-04 04:01:00,
2013-02-03 23:11:00,29.0,23.0,30.22,WSW,251,0.0,14.0,78,0.00,,,0.03,,2013-02-04 04:11:00,
2013-02-03 23:21:00,29.0,23.0,30.22,SW,218,0.0,11.0,77,0.00,,,0.03,,2013-02-04 04:21:00,
2013-02-03 23:32:00,28.0,23.0,30.21,West,271,7.0,15.0,82,0.00,,,0.03,,2013-02-04 04:32:00,
2013-02-03 23:42:00,28.0,23.0,30.21,West,271,7.0,15.0,82,0.00,,,0.03,,2013-02-04 04:42:00,
2013-02-03 23:52:00,28.0,23.0,30.21,West,271,7.0,15.0,82,0.00,,,0.03,,2013-02-04 04:52:00,